FW4701 Weather Reports


Display with metric or nautical units.
time (UTC)temp
F
wind
direction
speed
MPH
gust
MPH
rain 1hr
in
rain 24hr
in
rain mn
in
humidity
%
barometer
mb
20260903053018 79 175 2.0 5.0 0.00 0.00 0.00 86 1015.1
20260903053012 81 113 6.0 9.0 0.00 0.00 0.00 53 1012.6
20260903052511 79 187 1.0 5.0 0.00 0.00 0.00 86 1015.1
20260903052015 79 196 1.0 5.0 0.00 0.00 0.00 86 1015.0
20260903051524 79 204 1.0 6.0 0.00 0.00 0.00 86 1015.0
20260903051507 82 116 5.0 9.0 0.00 0.00 0.00 52 1012.8
20260903051016 79 200 2.0 6.0 0.00 0.00 0.00 86 1015.0
20260903050516 80 211 1.0 4.0 0.00 0.00 0.00 85 1015.0
20260903050033 80 203 1.0 6.0 0.00 0.00 0.00 85 1015.0
20260903050003 82 122 5.0 8.0 0.00 0.00 0.00 51 1012.8
20260903045504 80 190 2.0 6.0 0.00 0.00 0.00 85 1015.0
20260903045003 80 217 1.0 5.0 0.00 0.00 0.00 84 1015.0
20260903044600 83 119 7.0 11.0 0.00 0.00 0.00 51 1012.7
20260903044509 80 219 1.0 5.0 0.00 0.00 0.00 84 1015.1
20260903044004 81 178 1.0 4.0 0.00 0.00 0.00 84 1015.0
20260903043507 81 215 2.0 6.0 0.00 0.00 0.00 83 1015.0
20260903043100 83 109 7.0 11.0 0.00 0.00 0.00 50 1012.8
20260903043017 81 189 2.0 6.0 0.00 0.00 0.00 83 1015.0
20260903042508 81 209 2.0 6.0 0.00 0.00 0.00 83 1015.0
20260903042008 81 194 2.0 5.0 0.00 0.00 0.00 82 1015.0
20260903041556 84 110 8.0 13.0 0.00 0.00 0.00 50 1012.8
20260903041519 82 220 2.0 5.0 0.00 0.00 0.00 82 1015.0
20260903041013 82 193 1.0 4.0 0.00 0.00 0.00 81 1015.0
20260903040511 82 271 0.0 7.0 0.00 0.00 0.00 81 1015.0
20260903040058 84 116 9.0 14.0 0.00 0.00 0.00 49 1012.8
20260903040025 82 217 2.0 8.0 0.00 0.00 0.00 81 1014.9
20260903035513 82 182 1.0 8.0 0.00 0.00 0.00 81 1014.9
20260903035014 82 207 3.0 9.0 0.00 0.00 0.00 81 1014.9
20260903034552 85 101 6.0 9.0 0.00 0.00 0.00 48 1012.7
20260903034505 82 211 2.0 9.0 0.00 0.00 0.00 81 1014.9
20260903034003 82 183 2.0 9.0 0.00 0.00 0.00 81 1014.8
20260903033504 82 172 2.0 9.0 0.00 0.00 0.00 81 1014.9
20260903033049 85 120 8.0 12.0 0.00 0.00 0.00 47 1012.7
20260903033021 82 195 1.0 7.0 0.00 0.00 0.00 81 1014.9
20260903032506 82 260 3.0 7.0 0.00 0.00 0.00 81 1014.7
20260903032008 82 169 2.0 5.0 0.00 0.00 0.00 80 1014.9
20260903031551 86 89 5.0 7.0 0.00 0.00 0.00 46 1012.6
20260903031519 82 154 2.0 5.0 0.00 0.00 0.00 80 1014.8
20260903031010 82 190 2.0 7.0 0.00 0.00 0.00 80 1014.7
20260903030513 82 193 2.0 7.0 0.00 0.00 0.00 80 1014.7
20260903030045 87 124 5.0 8.0 0.00 0.00 0.00 45 1012.5
20260903030028 82 218 2.0 7.0 0.00 0.00 0.00 80 1014.7
20260903025513 82 209 1.0 7.0 0.00 0.00 0.00 80 1014.7
20260903025012 83 187 2.0 7.0 0.00 0.00 0.00 80 1014.7
20260903024548 87 120 7.0 9.0 0.00 0.00 0.00 44 1012.3
20260903024528 83 234 1.0 4.0 0.00 0.00 0.00 80 1014.7
20260903024014 83 220 1.0 5.0 0.00 0.00 0.00 80 1014.8
20260903023514 83 184 2.0 9.0 0.00 0.00 0.00 80 1014.7
20260903023057 88 115 5.0 8.0 0.00 0.00 0.00 44 1012.1
20260903023008 83 257 1.0 9.0 0.00 0.00 0.00 80 1014.7
20260903022504 83 232 2.0 7.0 0.00 0.00 0.00 80 1014.7
20260903022006 83 205 2.0 6.0 0.00 0.00 0.00 79 1014.7
20260903021544 87 105 4.0 8.0 0.00 0.00 0.00 44 1011.9
20260903021521 83 187 2.0 10.0 0.00 0.00 0.00 79 1014.8
20260903021009 83 184 2.0 11.0 0.00 0.00 0.00 78 1014.8
20260903020510 83 161 4.0 11.0 0.00 0.00 0.00 78 1014.7
20260903020039 88 86 4.0 9.0 0.00 0.00 0.00 44 1011.5
20260903020023 83 198 1.0 5.0 0.00 0.00 0.00 78 1014.6
20260903015511 83 176 1.0 5.0 0.00 0.00 0.00 77 1014.6
20260903015011 84 232 1.0 4.0 0.00 0.00 0.00 77 1014.5
20260903014535 89 63 4.0 11.0 0.00 0.00 0.00 43 1011.5
20260903014525 84 194 0.0 5.0 0.00 0.00 0.00 77 1014.6
20260903014013 84 190 1.0 5.0 0.00 0.00 0.00 77 1014.6
20260903013513 84 219 1.0 4.0 0.00 0.00 0.00 78 1014.5
20260903013032 89 109 7.0 13.0 0.00 0.00 0.00 42 1011.4
20260903013029 84 171 1.0 5.0 0.00 0.00 0.00 78 1014.5
20260903012516 84 207 2.0 5.0 0.00 0.00 0.00 77 1014.5
20260903012006 84 196 1.0 5.0 0.00 0.00 0.00 77 1014.5
20260903011528 90 82 5.0 17.0 0.00 0.00 0.00 39 1011.3
20260903011512 84 191 2.0 6.0 0.00 0.00 0.00 77 1014.5
20260903011007 85 209 2.0 6.0 0.00 0.00 0.00 77 1014.5
20260903010507 85 203 2.0 5.0 0.00 0.00 0.00 76 1014.5
20260903010026 91 69 10.0 19.0 0.00 0.00 0.00 37 1011.1
20260903010018 85 186 3.0 5.0 0.00 0.00 0.00 76 1014.5
20260903005512 85 191 2.0 6.0 0.00 0.00 0.00 75 1014.4
20260903005012 86 194 2.0 6.0 0.00 0.00 0.00 75 1014.4
20260903004533 86 195 2.0 5.0 0.00 0.00 0.00 74 1014.3
20260903004531 94 78 6.0 11.0 0.00 0.00 0.00 30 1010.8
20260903004012 86 168 1.0 6.0 0.00 0.00 0.00 74 1014.3
20260903003503 86 202 2.0 6.0 0.00 0.00 0.00 74 1014.3
20260903003025 95 86 5.0 9.0 0.00 0.00 0.00 28 1010.6
20260903003004 87 220 2.0 6.0 0.00 0.00 0.00 73 1014.3
20260903002504 87 217 1.0 6.0 0.00 0.00 0.00 73 1014.3
20260903002004 87 178 2.0 6.0 0.00 0.00 0.00 72 1014.3
20260903001522 96 78 6.0 9.0 0.00 0.00 0.00 26 1010.4
20260903001513 88 222 2.0 6.0 0.00 0.00 0.00 72 1014.3
20260903001005 88 209 1.0 5.0 0.00 0.00 0.00 72 1014.3
20260903000507 88 240 2.0 5.0 0.00 0.00 0.00 71 1014.3
20260903000016 97 83 5.0 9.0 0.00 0.00 0.00 25 1010.5
20260903000014 89 184 2.0 5.0 0.00 0.00 0.00 71 1014.3
20260902235510 89 207 1.0 6.0 0.00 0.00 0.00 71 1014.4
20260902235010 89 232 2.0 6.0 0.00 0.00 0.00 70 1014.4
20260902234614 98 63 5.0 9.0 0.00 0.00 0.00 24 1010.4
20260902234521 90 234 1.0 7.0 0.00 0.00 0.00 69 1014.5
20260902234010 90 190 3.0 7.0 0.00 0.00 0.00 69 1014.5
20260902233512 90 292 1.0 6.0 0.00 0.00 0.00 68 1014.4
20260902233028 90 262 1.0 7.0 0.00 0.00 0.00 67 1014.5
20260902233014 98 56 6.0 9.0 0.00 0.00 0.00 23 1010.4
20260902232505 91 186 1.0 7.0 0.00 0.00 0.00 65 1014.5
20260902232004 91 220 1.0 5.0 0.00 0.00 0.00 64 1014.6
20260902231511 91 240 1.0 8.0 0.00 0.00 0.00 63 1014.5
20260902231507 98 47 5.0 13.0 0.00 0.00 0.00 22 1010.5
20260902231005 92 178 2.0 8.0 0.00 0.00 0.00 62 1014.5
20260902230505 92 236 2.0 9.0 0.00 0.00 0.00 62 1014.5
20260902230011 92 246 2.0 9.0 0.00 0.00 0.00 62 1014.6
20260902230007 99 87 8.0 15.0 0.00 0.00 0.00 23 1010.4
20260902225507 92 257 2.0 9.0 0.00 0.00 0.00 62 1014.5
20260902225008 92 196 1.0 9.0 0.00 0.00 0.00 61 1014.5
20260902224518 93 176 3.0 8.0 0.00 0.00 0.00 62 1014.4
20260902224506 100 342 3.0 10.0 0.00 0.00 0.00 22 1010.4
20260902224009 93 186 2.0 9.0 0.00 0.00 0.00 61 1014.5
20260902223510 93 174 3.0 9.0 0.00 0.00 0.00 60 1014.5
20260902223101 100 59 5.0 10.0 0.00 0.00 0.00 22 1010.4
20260902223024 93 159 2.0 12.0 0.00 0.00 0.00 59 1014.5
20260902222513 94 281 4.0 12.0 0.00 0.00 0.00 58 1014.6
20260902222013 94 183 3.0 8.0 0.00 0.00 0.00 58 1014.5
20260902221600 100 14 4.0 13.0 0.00 0.00 0.00 23 1010.4
20260902221530 94 219 2.0 9.0 0.00 0.00 0.00 59 1014.5
20260902221003 94 250 4.0 11.0 0.00 0.00 0.00 59 1014.5
20260902220508 94 219 3.0 13.0 0.00 0.00 0.00 60 1014.5
20260902220055 100 42 5.0 10.0 0.00 0.00 0.00 22 1010.5
20260902220009 94 209 4.0 13.0 0.00 0.00 0.00 59 1014.5
20260902215511 94 232 2.0 11.0 0.00 0.00 0.00 59 1014.5
20260902215011 94 208 5.0 11.0 0.00 0.00 0.00 59 1014.6
20260902214553 99 74 4.0 11.0 0.00 0.00 0.00 23 1010.6
20260902214519 94 205 4.0 11.0 0.00 0.00 0.00 58 1014.6
20260902214008 94 302 3.0 11.0 0.00 0.00 0.00 57 1014.6
20260902213509 95 304 3.0 11.0 0.00 0.00 0.00 59 1014.6
20260902213052 100 116 3.0 11.0 0.00 0.00 0.00 23 1010.7
20260902213028 95 324 4.0 10.0 0.00 0.00 0.00 58 1014.7
20260902212510 95 250 5.0 9.0 0.00 0.00 0.00 59 1014.7
20260902212013 94 208 2.0 13.0 0.00 0.00 0.00 57 1014.7
20260902211549 100 127 5.0 12.0 0.00 0.00 0.00 23 1010.8
20260902211526 94 188 4.0 13.0 0.00 0.00 0.00 57 1014.7
20260902211017 94 159 4.0 12.0 0.00 0.00 0.00 56 1014.8
20260902210515 94 212 4.0 13.0 0.00 0.00 0.00 58 1014.9
20260902210046 100 60 5.0 10.0 0.00 0.00 0.00 24 1010.9
20260902210008 94 161 2.0 13.0 0.00 0.00 0.00 58 1014.9
20260902205502 94 243 3.0 8.0 0.00 0.00 0.00 58 1014.9
20260902205004 95 249 2.0 8.0 0.00 0.00 0.00 56 1014.9
20260902204543 99 51 7.0 13.0 0.00 0.00 0.00 24 1011.0
20260902204514 95 288 2.0 6.0 0.00 0.00 0.00 53 1014.9
20260902204009 95 258 2.0 12.0 0.00 0.00 0.00 59 1014.9
20260902203507 94 182 3.0 12.0 0.00 0.00 0.00 58 1014.9
20260902203044 99 68 5.0 12.0 0.00 0.00 0.00 24 1011.2
20260902203017 94 176 3.0 12.0 0.00 0.00 0.00 58 1014.9
20260902202510 95 255 3.0 11.0 0.00 0.00 0.00 58 1015.0
20260902202012 95 221 3.0 11.0 0.00 0.00 0.00 56 1015.0
20260902201536 101 60 1.0 7.0 0.00 0.00 0.00 23 1011.4
20260902201530 95 225 2.0 12.0 0.00 0.00 0.00 57 1015.1
20260902201018 95 188 6.0 12.0 0.00 0.00 0.00 57 1015.2
20260902200515 95 352 3.0 10.0 0.00 0.00 0.00 58 1015.3
20260902200033 96 212 2.0 10.0 0.00 0.00 0.00 57 1015.3
20260902195514 96 303 2.0 10.0 0.00 0.00 0.00 56 1015.3
20260902195015 96 229 4.0 11.0 0.00 0.00 0.00 58 1015.5
20260902194528 99 60 1.0 14.0 0.00 0.00 0.00 25 1011.9
20260902194513 96 279 1.0 11.0 0.00 0.00 0.00 57 1015.5
20260902194006 96 191 3.0 9.0 0.00 0.00 0.00 55 1015.5
20260902193507 96 246 3.0 9.0 0.00 0.00 0.00 58 1015.6
20260902193025 99 20 4.0 10.0 0.00 0.00 0.00 26 1012.2
20260902193016 96 207 3.0 9.0 0.00 0.00 0.00 56 1015.6
20260902192510 96 157 2.0 9.0 0.00 0.00 0.00 58 1015.7
20260902192008 96 196 4.0 9.0 0.00 0.00 0.00 57 1015.7
20260902191525 96 299 2.0 9.0 0.00 0.00 0.00 58 1015.7
20260902191521 97 54 4.0 9.0 0.00 0.00 0.00 27 1012.5
20260902191011 96 160 3.0 7.0 0.00 0.00 0.00 60 1015.7
20260902190510 95 161 2.0 7.0 0.00 0.00 0.00 58 1015.8
20260902190025 95 246 1.0 10.0 0.00 0.00 0.00 58 1015.8
20260902190022 98 93 5.0 11.0 0.00 0.00 0.00 27 1012.7
20260902185515 95 189 1.0 12.0 0.00 0.00 0.00 58 1015.8
20260902185015 95 265 2.0 12.0 0.00 0.00 0.00 58 1015.9
20260902184531 95 141 2.0 10.0 0.00 0.00 0.00 60 1016.0
20260902184512 96 290 2.0 7.0 0.00 0.00 0.00 30 1013.0
20260902184016 94 153 1.0 10.0 0.00 0.00 0.00 59 1016.0
20260902183507 94 279 2.0 7.0 0.00 0.00 0.00 59 1015.9
20260902183012 94 217 2.0 10.0 0.00 0.00 0.00 58 1015.9
20260902183009 98 30 0.0 6.0 0.00 0.00 0.00 28 1013.3
20260902182509 94 246 2.0 10.0 0.00 0.00 0.00 59 1016.0
20260902182007 94 200 3.0 9.0 0.00 0.00 0.00 58 1016.0
20260902181520 94 265 3.0 8.0 0.00 0.00 0.00 57 1016.0
20260902181503 99 7 0.0 8.0 0.00 0.00 0.00 28 1013.4
20260902181009 94 261 2.0 11.0 0.00 0.00 0.00 59 1016.0
20260902180511 94 197 4.0 11.0 0.00 0.00 0.00 59 1016.0
20260902180058 98 54 0.0 10.0 0.00 0.00 0.00 28 1013.7
20260902180024 94 282 2.0 9.0 0.00 0.00 0.00 60 1016.0
20260902175512 94 244 2.0 7.0 0.00 0.00 0.00 59 1016.1
20260902175015 94 200 1.0 11.0 0.00 0.00 0.00 61 1016.2
20260902174601 97 278 4.0 11.0 0.00 0.00 0.00 29 1014.2
20260902174529 93 201 2.0 11.0 0.00 0.00 0.00 60 1016.2
20260902174015 93 205 2.0 8.0 0.00 0.00 0.00 61 1016.1
20260902173513 93 275 1.0 7.0 0.00 0.00 0.00 62 1016.1
20260902173048 96 353 2.0 20.0 0.00 0.00 0.00 31 1014.4
20260902173036 93 187 2.0 11.0 0.00 0.00 0.00 61 1016.2
20260902172516 92 309 2.0 11.0 0.00 0.00 0.00 62 1016.3
20260902172008 92 306 2.0 10.0 0.00 0.00 0.00 63 1016.3
20260902171549 96 101 3.0 7.0 0.00 0.00 0.00 33 1014.5
20260902171520 92 169 4.0 11.0 0.00 0.00 0.00 62 1016.3
20260902171009 92 201 4.0 11.0 0.00 0.00 0.00 62 1016.3
20260902170509 92 278 1.0 10.0 0.00 0.00 0.00 64 1016.3
20260902170046 96 26 0.0 4.0 0.00 0.00 0.00 33 1014.7
20260902170021 91 324 2.0 8.0 0.00 0.00 0.00 64 1016.4
20260902165511 91 268 2.0 8.0 0.00 0.00 0.00 64 1016.4
20260902165012 91 197 3.0 8.0 0.00 0.00 0.00 64 1016.3
20260902164544 96 352 2.0 7.0 0.00 0.00 0.00 33 1014.8
20260902164530 90 172 2.0 8.0 0.00 0.00 0.00 66 1016.2
20260902164015 90 244 3.0 12.0 0.00 0.00 0.00 66 1016.3
20260902163514 90 215 5.0 12.0 0.00 0.00 0.00 65 1016.3
20260902163041 95 277 1.0 5.0 0.00 0.00 0.00 34 1015.0
20260902163029 90 232 3.0 10.0 0.00 0.00 0.00 65 1016.2
20260902162515 90 352 3.0 11.0 0.00 0.00 0.00 65 1016.3
20260902162004 90 180 5.0 11.0 0.00 0.00 0.00 65 1016.3
20260902161540 96 312 0.0 3.0 0.00 0.00 0.00 34 1015.0
20260902161520 89 210 2.0 9.0 0.00 0.00 0.00 67 1016.4
20260902161010 89 182 3.0 9.0 0.00 0.00 0.00 67 1016.5
20260902160512 89 198 4.0 10.0 0.00 0.00 0.00 67 1016.4
20260902160046 95 263 0.0 1.0 0.00 0.00 0.00 34 1015.1
20260902160018 88 215 2.0 12.0 0.00 0.00 0.00 67 1016.4
20260902155511 88 222 5.0 12.0 0.00 0.00 0.00 67 1016.4
20260902155014 88 185 5.0 10.0 0.00 0.00 0.00 69 1016.4
20260902154536 94 120 0.0 4.0 0.00 0.00 0.00 37 1015.2
20260902154526 87 145 3.0 7.0 0.00 0.00 0.00 71 1016.4
20260902154014 87 237 1.0 10.0 0.00 0.00 0.00 69 1016.4
20260902153514 87 203 3.0 10.0 0.00 0.00 0.00 72 1016.3
20260902153029 86 180 2.0 7.0 0.00 0.00 0.00 73 1016.4
20260902152503 86 167 1.0 7.0 0.00 0.00 0.00 72 1016.4
20260902152006 86 253 2.0 9.0 0.00 0.00 0.00 70 1016.3
20260902151523 92 181 0.0 2.0 0.00 0.00 0.00 43 1015.2
20260902151510 86 292 2.0 10.0 0.00 0.00 0.00 69 1016.3
20260902151005 87 197 3.0 12.0 0.00 0.00 0.00 70 1016.4
20260902150512 86 146 5.0 12.0 0.00 0.00 0.00 70 1016.4
20260902150020 89 103 0.0 4.0 0.00 0.00 0.00 44 1015.3
20260902150016 86 213 2.0 9.0 0.00 0.00 0.00 71 1016.4
20260902145510 86 234 2.0 9.0 0.00 0.00 0.00 71 1016.4
20260902145008 86 205 3.0 8.0 0.00 0.00 0.00 71 1016.4
20260902144533 85 184 1.0 6.0 0.00 0.00 0.00 73 1016.4
20260902144510 88 76 0.0 5.0 0.00 0.00 0.00 45 1015.3
20260902144011 85 240 2.0 9.0 0.00 0.00 0.00 74 1016.3
20260902143513 85 191 3.0 9.0 0.00 0.00 0.00 73 1016.3
20260902143028 84 178 3.0 9.0 0.00 0.00 0.00 74 1016.3
20260902143005 86 117 0.0 6.0 0.00 0.00 0.00 47 1015.4
20260902142514 84 282 3.0 9.0 0.00 0.00 0.00 74 1016.3
20260902142014 84 227 3.0 8.0 0.00 0.00 0.00 74 1016.3
20260902141600 85 89 1.0 7.0 0.00 0.00 0.00 50 1015.5
20260902141511 84 220 4.0 8.0 0.00 0.00 0.00 74 1016.3
20260902141004 83 214 2.0 8.0 0.00 0.00 0.00 75 1016.3
20260902140503 83 200 3.0 9.0 0.00 0.00 0.00 74 1016.4
20260902140057 84 98 2.0 7.0 0.00 0.00 0.00 52 1015.4
20260902140013 82 180 4.0 9.0 0.00 0.00 0.00 74 1016.5
20260902135508 82 201 3.0 10.0 0.00 0.00 0.00 75 1016.5
20260902135006 82 199 5.0 10.0 0.00 0.00 0.00 75 1016.4
20260902134556 83 107 0.0 3.0 0.00 0.00 0.00 52 1015.5
20260902134520 81 202 2.0 7.0 0.00 0.00 0.00 77 1016.5
20260902134012 81 168 2.0 7.0 0.00 0.00 0.00 77 1016.6
20260902133514 80 202 3.0 7.0 0.00 0.00 0.00 78 1016.7
20260902133052 82 113 0.0 4.0 0.00 0.00 0.00 53 1015.2
20260902133025 79 186 2.0 9.0 0.00 0.00 0.00 80 1016.8
20260902132516 79 199 2.0 9.0 0.00 0.00 0.00 81 1016.8
20260902132013 78 188 2.0 8.0 0.00 0.00 0.00 82 1016.7
20260902131550 81 113 0.0 3.0 0.00 0.00 0.00 53 1015.0
20260902131541 77 186 4.0 8.0 0.00 0.00 0.00 82 1016.7
20260902131013 77 170 1.0 7.0 0.00 0.00 0.00 83 1016.8
20260902130515 77 180 1.0 7.0 0.00 0.00 0.00 83 1016.8
20260902130045 80 84 0.0 0.0 0.00 0.00 0.00 56 1014.9
20260902130011 76 197 2.0 6.0 0.00 0.00 0.00 84 1016.8
20260902125505 76 211 3.0 6.0 0.00 0.00 0.00 85 1016.7
20260902125009 76 205 1.0 6.0 0.00 0.00 0.00 85 1016.6
20260902124542 0 0.0 0.0 0.00 0.00 0.00 1014.8
20260902124514 75 186 1.0 6.0 0.00 0.00 0.00 86 1016.6
20260902124009 75 217 3.0 6.0 0.00 0.00 0.00 85 1016.6
20260902123509 75 177 2.0 6.0 0.00 0.00 0.00 86 1016.6
20260902123136 0 0.0 0.0 0.00 0.00 0.00 1014.8
20260902123021 75 180 2.0 5.0 0.00 0.00 0.00 87 1016.7
20260902122514 74 175 1.0 4.0 0.00 0.00 0.00 87 1016.7
20260902122012 74 194 1.0 5.0 0.00 0.00 0.00 87 1017.0
20260902121531 0 0.0 0.0 0.00 0.00 0.00 1014.6
20260902121526 74 201 2.0 6.0 0.00 0.00 0.00 88 1016.9
20260902121014 74 169 2.0 6.0 0.00 0.00 0.00 88 1016.9
20260902120516 74 189 2.0 5.0 0.00 0.00 0.00 88 1016.9
20260902120031 73 167 1.0 3.0 0.00 0.00 0.00 88 1016.8
20260902120028 0 0.0 0.0 0.00 0.00 0.00 1014.5
20260902115515 73 180 1.0 5.0 0.00 0.00 0.00 88 1017.0
20260902115006 73 207 1.0 5.0 0.00 0.00 0.00 89 1017.0
20260902114536 0 0.0 0.0 0.00 0.00 0.00 1014.6
20260902114519 73 213 1.0 5.0 0.00 0.00 0.00 88 1017.0
20260902114006 73 195 0.0 3.0 0.00 0.00 0.00 88 1016.9
20260902113509 73 189 1.0 3.0 0.00 0.00 0.00 88 1016.9
20260902113019 73 217 0.0 2.0 0.00 0.00 0.00 88 1016.8
20260902113016 0 0.0 0.0 0.00 0.00 0.00 1014.6
20260902112513 73 202 0.0 3.0 0.00 0.00 0.00 88 1016.7
20260902112011 73 190 1.0 3.0 0.00 0.00 0.00 88 1016.7
20260902111526 73 206 1.0 3.0 0.00 0.00 0.00 88 1016.7
20260902111509 0 0.0 0.0 0.00 0.00 0.00 1014.6
20260902111012 73 205 1.0 3.0 0.00 0.00 0.00 87 1016.6
20260902110515 73 198 1.0 3.0 0.00 0.00 0.00 87 1016.7
20260902110029 73 190 1.0 2.0 0.00 0.00 0.00 87 1016.7
20260902110007 0 0.0 0.0 0.00 0.00 0.00 1014.7
20260902105516 73 198 0.0 3.0 0.00 0.00 0.00 87 1016.7
20260902105016 73 198 0.0 3.0 0.00 0.00 0.00 87 1016.7
20260902104600 0 0.0 0.0 0.00 0.00 0.00 1014.5
20260902104529 73 194 0.0 3.0 0.00 0.00 0.00 87 1016.7
20260902104017 73 202 1.0 3.0 0.00 0.00 0.00 87 1016.7
20260902103507 73 204 0.0 2.0 0.00 0.00 0.00 87 1016.7
20260902103105 0 0.0 0.0 0.00 0.00 0.00 1014.4
20260902103017 73 238 0.0 2.0 0.00 0.00 0.00 88 1016.7
20260902102508 73 196 0.0 2.0 0.00 0.00 0.00 88 1016.6
20260902102008 73 246 0.0 2.0 0.00 0.00 0.00 88 1016.6
20260902101549 0 114 0.0 1.0 0.00 0.00 0.00 1014.5
20260902101522 73 188 0.0 3.0 0.00 0.00 0.00 88 1016.5
20260902101010 73 186 0.0 3.0 0.00 0.00 0.00 88 1016.5
20260902100515 74 199 1.0 3.0 0.00 0.00 0.00 88 1016.4
20260902100111 75 116 0.0 0.0 0.00 0.00 0.00 61 1014.5
20260902100027 74 217 1.0 4.0 0.00 0.00 0.00 88 1016.5
20260902095513 74 205 1.0 4.0 0.00 0.00 0.00 88 1016.5
20260902095014 74 198 1.0 4.0 0.00 0.00 0.00 88 1016.5
20260902094552 75 116 0.0 0.0 0.00 0.00 0.00 61 1014.3
20260902094531 74 187 1.0 3.0 0.00 0.00 0.00 88 1016.5
20260902094016 74 182 2.0 4.0 0.00 0.00 0.00 88 1016.5
20260902093520 74 202 0.0 4.0 0.00 0.00 0.00 88 1016.5
20260902093102 75 116 0.0 0.0 0.00 0.00 0.00 59 1014.5
20260902093031 74 216 1.0 4.0 0.00 0.00 0.00 87 1016.5
20260902092511 74 196 1.0 4.0 0.00 0.00 0.00 87 1016.4
20260902092008 74 213 1.0 5.0 0.00 0.00 0.00 87 1016.4
20260902091537 76 116 0.0 0.0 0.00 0.00 0.00 58 1014.6
20260902091533 74 218 2.0 5.0 0.00 0.00 0.00 87 1016.3
20260902091009 75 192 1.0 5.0 0.00 0.00 0.00 87 1016.3
20260902090511 75 171 1.0 4.0 0.00 0.00 0.00 87 1016.3
20260902090030 77 116 0.0 0.0 0.00 0.00 0.00 56 1014.5
20260902090023 75 172 0.0 3.0 0.00 0.00 0.00 86 1016.2
20260902085513 75 190 1.0 4.0 0.00 0.00 0.00 86 1016.1
20260902085015 75 197 1.0 4.0 0.00 0.00 0.00 86 1016.0
20260902084528 75 196 1.0 4.0 0.00 0.00 0.00 86 1016.0
20260902084525 79 117 0.0 0.0 0.00 0.00 0.00 54 1014.7
20260902084015 75 196 0.0 4.0 0.00 0.00 0.00 85 1016.0
20260902083521 76 190 0.0 4.0 0.00 0.00 0.00 85 1016.0
20260902083030 76 196 0.0 3.0 0.00 0.00 0.00 85 1016.0
20260902082516 76 205 0.0 3.0 0.00 0.00 0.00 85 1016.1
20260902082017 76 209 0.0 6.0 0.00 0.00 0.00 85 1016.0
20260902081526 76 205 0.0 6.0 0.00 0.00 0.00 85 1015.9
20260902081519 80 116 0.0 3.0 0.00 0.00 0.00 53 1014.6
20260902081008 76 185 1.0 4.0 0.00 0.00 0.00 85 1015.8
20260902080510 76 165 1.0 3.0 0.00 0.00 0.00 84 1015.9
20260902080019 76 209 1.0 3.0 0.00 0.00 0.00 84 1015.9
20260902080016 80 115 0.0 1.0 0.00 0.00 0.00 54 1014.7
20260902075512 76 184 0.0 4.0 0.00 0.00 0.00 84 1015.9
20260902075011 76 214 1.0 5.0 0.00 0.00 0.00 84 1015.9
20260902074530 77 182 1.0 5.0 0.00 0.00 0.00 84 1015.9
20260902074515 81 116 0.0 1.0 0.00 0.00 0.00 52 1014.7
20260902074015 77 204 0.0 5.0 0.00 0.00 0.00 84 1016.0
20260902073517 77 215 2.0 6.0 0.00 0.00 0.00 85 1016.0
20260902073028 77 238 2.0 6.0 0.00 0.00 0.00 85 1016.1
20260902073009 81 116 0.0 4.0 0.00 0.00 0.00 52 1014.9
20260902072515 77 191 1.0 7.0 0.00 0.00 0.00 85 1016.1
20260902072007 77 184 2.0 7.0 0.00 0.00 0.00 85 1016.1
20260902071608 81 118 0.0 5.0 0.00 0.00 0.00 52 1014.9
20260902071526 77 196 2.0 7.0 0.00 0.00 0.00 85 1016.1
20260902071012 77 198 2.0 7.0 0.00 0.00 0.00 84 1016.1
20260902070507 77 205 3.0 6.0 0.00 0.00 0.00 84 1016.1
20260902070013 78 209 2.0 6.0 0.00 0.00 0.00 84 1016.2
20260902070003 81 110 5.0 8.0 0.00 0.00 0.00 51 1014.9
20260902065509 78 202 2.0 6.0 0.00 0.00 0.00 84 1016.0
20260902065008 78 221 2.0 7.0 0.00 0.00 0.00 83 1015.9
20260902064559 82 128 3.0 6.0 0.00 0.00 0.00 51 1014.9
20260902064502 78 203 2.0 7.0 0.00 0.00 0.00 83 1015.9
20260902064003 78 209 1.0 7.0 0.00 0.00 0.00 83 1016.0
20260902063502 78 208 2.0 6.0 0.00 0.00 0.00 83 1016.0
20260902063055 82 124 0.0 4.0 0.00 0.00 0.00 50 1015.0
20260902063003 78 180 1.0 6.0 0.00 0.00 0.00 83 1016.0
20260902062503 78 206 1.0 6.0 0.00 0.00 0.00 83 1016.0
20260902062003 78 184 1.0 6.0 0.00 0.00 0.00 83 1015.9
20260902061605 83 117 5.0 8.0 0.00 0.00 0.00 49 1015.0
20260902061512 78 196 1.0 5.0 0.00 0.00 0.00 83 1016.0
20260902061003 78 213 2.0 6.0 0.00 0.00 0.00 83 1016.1
20260902060508 78 202 1.0 6.0 0.00 0.00 0.00 83 1016.1
20260902060056 83 119 5.0 8.0 0.00 0.00 0.00 48 1014.8
20260902060021 78 215 2.0 5.0 0.00 0.00 0.00 83 1016.1
20260902055508 78 212 1.0 4.0 0.00 0.00 0.00 83 1016.2
20260902055006 78 188 1.0 7.0 0.00 0.00 0.00 83 1016.2
20260902054548 84 132 4.0 8.0 0.00 0.00 0.00 47 1014.8
20260902054532 78 213 1.0 7.0 0.00 0.00 0.00 83 1016.2
20260902054008 78 233 1.0 5.0 0.00 0.00 0.00 83 1016.2
20260902053503 78 207 2.0 5.0 0.00 0.00 0.00 83 1016.2